Omaha Offutt, NE

1:44 AM CST on February 22, 2018 (GMT -0600)
Offutt Air Force Base

Weather History for KOFF - February, 2013

Change the Weather History Date:

Sunday, February 24, 2013

  Actual Average Record
Temperature  
Mean Temperature 24 °F -  
Max Temperature 41 °F 37 °F 64 °F (2006)
Min Temperature 8 °F 21 °F 1 °F (2003)
Degree Days  
Heating Degree Days 40    
Moisture  
Dew Point 22 °F    
Average Humidity 83    
Maximum Humidity 100    
Minimum Humidity 55    
Precipitation  
Precipitation 0.00 in - - ()
Snow  
Snow 0.00 in - - ()
Snow Depth 4.00 in    
Sea Level Pressure  
Sea Level Pressure 30.02 in    
Wind  
Wind Speed 4 mph (ENE)    
Max Wind Speed 9 mph    
Max Gust Speed -    
Visibility 9 miles    
Events      
Averages and records for this station are not official NWS values.
T = Trace of Precipitation, MM = Missing Value Source: NWS Daily Summary

Daily Weather History Graph

Daily Weather History Graph

Search for Another Location

Airport or City:

Trip Planner

Search our weather history database for the weather conditions in past years. The results will help you decide how hot, cold, wet, or windy it might be!

Date:

Astronomy

Feb. 24, 2013 Rise Set
Actual Time 7:05 AM CST 6:09 PM CST
Civil Twilight 6:37 AM CST 6:36 PM CST
Nautical Twilight 6:05 AM CST 7:08 PM CST
Astronomical Twilight 5:33 AM CST 7:40 PM CST
Moon 5:21 PM CST (2/24) 6:03 AM CST (2/24)
Length of Visible Light 11h 59m
Length of Day
11h 04m
Waxing Gibbous, 99% of the Moon is Illuminated
Feb 24
Waxing Gibbous
Feb 25
Full
Mar 4
Last Quarter
Mar 11
New
Mar 19
First Quarter

Hourly Weather History & Observations

Time (CST) Temp. Windchill Dew Point Humidity Pressure Visibility Wind Dir Wind Speed Gust Speed Precip Events Conditions
12:55 AM 14.5 °F 8.8 °F 14.0 °F 98% 29.96 in 10.0 mi East 3.5 mph - N/A   Clear
1:55 AM 13.8 °F 6.2 °F 13.5 °F 98% 29.96 in 8.0 mi East 4.6 mph - N/A   Clear
2:55 AM 13.3 °F 7.3 °F 12.2 °F 95% 29.97 in 6.0 mi East 3.5 mph - N/A   Clear
3:55 AM 8.8 °F 2.2 °F 7.3 °F 94% 29.96 in 6.0 mi East 3.5 mph - N/A   Clear
4:55 AM 11.7 °F - 10.4 °F 95% 29.97 in 5.0 mi Calm Calm - N/A   Mostly Cloudy
5:55 AM 10.2 °F - 9.0 °F 95% 30.00 in 5.0 mi Calm Calm - N/A   Clear
6:09 AM 12.2 °F 6.1 °F 10.4 °F 92% 30.00 in 5.0 mi East 3.5 mph - N/A   Mostly Cloudy
6:39 AM 14.0 °F 8.2 °F 14.0 °F 100% 30.00 in 6.0 mi East 3.5 mph - N/A   Overcast
6:55 AM 16.5 °F 11.0 °F 16.2 °F 98% 29.99 in 6.0 mi East 3.5 mph - N/A   Overcast
7:55 AM 20.8 °F 16.0 °F 20.7 °F 99% 30.02 in 7.0 mi East 3.5 mph - N/A   Overcast
8:55 AM 24.1 °F 18.2 °F 23.7 °F 99% 30.03 in 9.0 mi ESE 4.6 mph - N/A   Overcast
9:55 AM 26.2 °F 20.7 °F 25.9 °F 99% 30.04 in 10.0 mi SE 4.6 mph - N/A   Overcast
10:55 AM 32.4 °F 29.1 °F 24.6 °F 73% 30.05 in 10.0 mi East 3.5 mph - N/A   Scattered Clouds
11:55 AM 34.7 °F 30.6 °F 25.7 °F 70% 30.06 in 10.0 mi ESE 4.6 mph - N/A   Partly Cloudy
12:08 PM 33.8 °F 28.6 °F 26.6 °F 75% 30.06 in 10.0 mi ESE 5.8 mph - N/A   Mostly Cloudy
12:55 PM 37.4 °F 33.8 °F 26.6 °F 65% 30.04 in 10.0 mi ESE 4.6 mph - N/A   Overcast
1:55 PM 38.5 °F 35.0 °F 26.1 °F 61% 30.01 in 10.0 mi ESE 4.6 mph - N/A   Scattered Clouds
2:55 PM 41.7 °F - 26.8 °F 55% 30.00 in 10.0 mi Calm Calm - N/A   Partly Cloudy
3:55 PM 40.3 °F 37.1 °F 28.0 °F 62% 30.00 in 10.0 mi East 4.6 mph - N/A   Scattered Clouds
4:55 PM 39.6 °F 35.4 °F 27.9 °F 63% 30.01 in 10.0 mi ENE 5.8 mph - N/A   Overcast
5:55 PM 36.7 °F 32.0 °F 28.9 °F 74% 30.03 in 10.0 mi NE 5.8 mph - N/A   Overcast
6:55 PM 35.8 °F 31.9 °F 29.5 °F 78% 30.04 in 10.0 mi NE 4.6 mph - N/A   Overcast
7:55 PM 35.6 °F 32.8 °F 28.8 °F 76% 30.06 in 10.0 mi NNE 3.5 mph - N/A   Overcast
8:55 PM 36.7 °F 32.9 °F 27.9 °F 70% 30.08 in 10.0 mi NE 4.6 mph - N/A   Overcast
9:55 PM 35.8 °F 30.1 °F 29.3 °F 77% 30.09 in 10.0 mi North 6.9 mph - N/A   Overcast
10:55 PM 34.3 °F 28.4 °F 29.1 °F 81% 30.09 in 10.0 mi NNW 6.9 mph - N/A   Overcast
11:55 PM 32.7 °F 25.0 °F 28.9 °F 86% 30.07 in 8.0 mi NNW 9.2 mph - N/A   Overcast